Regional Weather Roundup
Issued by NWS

Home | Current Version | Previous Version | Text Only | Print | Product List | Glossary On
Versions: 1 2 3 4 5 6 7 8 9 10 11 12 13 14 15 16 17 18 19 20 21 22 23 24 25 26 27 28 29 30 31 32 33 34 35 36 37 38 39 40 41 42 43 44 45 46 47 48 49 50
000
ASUS43 KMKX 180811
RWRWI

WISCONSIN REGIONAL WEATHER ROUNDUP
NATIONAL WEATHER SERVICE MILWAUKEE/SULLIVAN WI
300 AM CDT THU SEP 18 2014

NOTE: "FAIR" INDICATES FEW OR NO CLOUDS BELOW 12,000 FEET WITH NO
SIGNIFICANT WEATHER AND/OR OBSTRUCTIONS TO VISIBILITY.

WIZ001-002-006>008-014>016-023>028-180900-
NORTHWEST WISCONSIN

CITY           SKY/WX    TMP DP  RH WIND       PRES   REMARKS
SUPERIOR ARPT  CLOUDY    42  38  83 E6        30.16S
ASHLAND        CLOUDY    44  39  82 NE8       30.16R
HAYWARD        CLOUDY    44  41  89 NE5       30.12S
SIREN          CLOUDY    46  42  86 E3        30.10F
RICE LAKE      CLEAR     44  43  94 NE5       30.11R
LADYSMITH      MOCLDY    46  45  94 NE5       30.12S
EAU CLAIRE     CLEAR     48  46  93 NE7       30.07S
MENOMONIE      SUNNY     47  46  95 N5        30.08S
NEW RICHMOND   CLEAR     46  45  97 NE5       30.07F
OSCEOLA        CLEAR     46  46 100 NE3       30.11S
$$

WIZ003>005-009-010-017-018-180900-
NORTH CENTRAL WISCONSIN

CITY           SKY/WX    TMP DP  RH WIND       PRES   REMARKS
WOODRUFF       CLOUDY    42  39  89 E3        30.13S
RHINELANDER    CLOUDY    44  40  85 E7        30.13S
EAGLE RIVER    CLOUDY    40  37  88 E7        30.13S
LAND O LAKES   CLOUDY    38  36  92 CALM      30.15S
PHILLIPS       CLOUDY    46  43  91 E6        30.11S
TOMAHAWK       CLOUDY    46  43  88 CALM      30.13R
MEDFORD        CLOUDY    48  47  95 E6        30.09S
MERRILL        CLOUDY    49  46  89 E6        30.11R
$$

WIZ029-030-035-036-043>047-180900-
CENTRAL WISCONSIN

CITY           SKY/WX    TMP DP  RH WIND       PRES   REMARKS
WAUSAU         CLOUDY    47  45  93 E6        30.10S
MOSINEE        CLEAR     43  43 100 E6        30.12S
MARSHFIELD     CLEAR     48  46  93 E9        30.09R
STEVENS POINT  CLEAR     44  41  90 E6        30.11S
WAUPACA        CLOUDY    50  46  86 NE5       30.12S
WAUTOMA        CLOUDY    50  47  89 NE7       30.11R
WISC RAPIDS    MOCLDY    48  45  89 E8        30.11R
CAMP DOUGLAS   FOG       40  40 100 CALM      30.07S VSB 1/2
$$

WIZ011>013-019>022-031-037>040-048>050-180900-
NORTHEAST WISCONSIN

CITY           SKY/WX    TMP DP  RH WIND       PRES   REMARKS
ANTIGO         CLOUDY    43  41  94 NE9       30.13R
STURGEON BAY   CLOUDY    45  37  76 NE9       30.13F
GREEN BAY      CLOUDY    48  43  82 N10       30.12R
MANITOWOC      CLOUDY    49  45  86 NE10G16   30.11R
APPLETON       CLOUDY    48  43  81 NE8       30.11S
CLINTONVILLE   PTCLDY    43  39  87 NE5       30.13R
OSHKOSH        CLOUDY    52  47  83 NE12      30.10R
$$

WIZ032>034-041-042-053>061-180900-
SOUTHWEST WISCONSIN

CITY           SKY/WX    TMP DP  RH WIND       PRES   REMARKS
LA CROSSE      CLEAR     52  50  93 SE5       30.05S
SPARTA           N/A     44  44 100 CALM      30.07S FOG
VIROQUA        FAIR      51  51 100 E3        30.06R
BOSCOBEL       FOG       51  49  92 CALM      30.06S VSB 1/4
PRAIRIE DU CHI FOG       48  47  95 CALM      30.05S VSB 3/4
PLATTEVILLE    FAIR      52  49  90 CALM      30.06R
$$

WIZ056-057-062-063-064-067-068-180900-
SOUTH CENTRAL WISCONSIN

CITY           SKY/WX    TMP DP  RH WIND       PRES   REMARKS
BARABOO/DELLS  FOG       50  48  94 NE7       30.07S VSB 1/4
LONE ROCK      HAZE      52  47  83 CALM      30.06S VSB 1/4
WATERTOWN      CLEAR     49  49 100 NE5       30.07R
MADISON        CLEAR     47  45  93 N5        30.07R FOG
MIDDLETON      FAIR      46  46  99 CALM      30.06S
MONROE         CLEAR     54  50  87 CALM      30.06S
JANESVILLE     FOG       46  46 100 CALM      30.06R VSB 1
$$

WIZ051-052-058>065-066-070>072-180900-
SOUTHEAST WISCONSIN

CITY           SKY/WX    TMP DP  RH WIND       PRES   REMARKS
MILWAUKEE      MOCLDY    53  49  86 N12       30.08R
WAUKESHA       PTCLDY    46  46 100 NE5       30.09S
MILWAUKEE/TIMM CLEAR     50  45  81 N6        30.09R
RACINE         MOCLDY    54  52  93 N12       30.08R
BURLINGTON     CLEAR     42  42 100 CALM      30.06R
KENOSHA        CLEAR     48  47  96 W3        30.06R
FOND DU LAC    CLOUDY    50  45  83 E9        30.10R
SHEBOYGAN      CLOUDY    49  46  90 NE13      30.09S
WEST BEND      CLOUDY    48  45  87 NE6       30.09R
JUNEAU         CLOUDY    50  50  99 NE7       30.09S FOG
$$

LSZ147-162-180900-
LAKE SUPERIOR

STATION/POSITION TIME  TEMP    WIND        PRES    WAVE
                       AIR SEA DIR/SP/G            HT/PER
                 (UTC) (F)     (DEG/KT/KT) (MB)    (FT/S)
W MID LAKE BUOY  0750   44 47  120/ 10/ 12 1022.3R   2/ 6
DEVILS ISLAND    0800   44     110/ 15/ 18 1022.4R
PORT WING        0740   44      70/  3/  8 1021.7R
SAXON HARBOR     0740   45      80/  4/  8 1021.3R
$$

LMZ867-665-643>646-180900-
LAKE MICHIGAN

STATION/POSITION TIME  TEMP    WIND        PRES    WAVE
                       AIR SEA DIR/SP/G            HT/PER
                 (UTC) (F)     (DEG/KT/KT) (MB)    (FT/S)
N MID LAKE BUOY  0750   48 57   20/ 14/ 19 1020.1R   3/ 5
NORTHPORT PIER   0700   46      10/ 13/ 17 1020.7R
KEWAUNEE LAKESHO 0700   49      30/ 13/ 21 1018.6R
SHEBOYGAN LAKESH 0800   50 48   10/ 17/ 18 1019.4R
PORT WASHINGTON  0700   52     360/  7/ 11 1019.3
ATWATER BUOY     0800   55     360/ 19/ 23 1019.1R
MILWAUKEE LAKESH 0700   55      10/ 15/ 20   N/A
S MID LAKE BUOY  0750   63 65  240/  6/  8 1017.5R   0
KENOSHA   LAKESH 0800   55     350/ 12/ 18 1017.9R
$$

TC  - TEMPERATURE IN CELSIUS
VSB - VISIBILITY IN STATUTE MILES
WCI - WIND CHILL INDEX
HX  - HEAT INDEX




USA.gov is the U.S. government's official web portal to all federal, state and local government web resources and services.